YO6RK-13 Weather Reports


time (UTC)temp
F
wind
direction
speed
knots
gust
knots
rain 1hr
in
rain 24hr
in
rain mn
in
humidity
%
barometer
mb
20260508055017 65 0 0.0 0.0 0.00 0.02 0.00 71 1013.8
20260508054515 66 0 0.0 0.0 0.00 0.02 0.00 73 1014.0
20260508054015 64 0 0.0 0.0 0.00 0.02 0.00 77 1014.0
20260508053515 63 0 0.0 0.0 0.00 0.02 0.00 75 1014.0
20260508053022 64 0 0.0 0.0 0.00 0.02 0.00 77 1014.0
20260508052513 63 0 0.0 0.0 0.00 0.02 0.00 77 1013.9
20260508051535 63 0 0.0 0.0 0.00 0.02 0.00 79 1013.9
20260508051039 62 0 0.0 0.0 0.00 0.02 0.00 79 1014.0
20260508050531 63 0 0.0 0.0 0.00 0.02 0.00 78 1013.9
20260508045531 63 203 0.0 0.0 0.00 0.02 0.00 79 1013.8
20260508045014 61 203 0.0 0.0 0.00 0.02 0.00 82 1013.8
20260508044521 60 203 0.0 0.0 0.00 0.02 0.00 85 1013.9
20260508044034 59 203 0.0 0.0 0.00 0.02 0.00 89 1013.8
20260508043539 57 203 0.0 0.0 0.00 0.02 0.00 89 1013.8
20260508043028 57 203 0.0 0.0 0.00 0.02 0.00 90 1013.8
20260508042533 56 203 0.0 0.0 0.00 0.02 0.00 90 1013.7
20260508042027 56 203 0.0 0.0 0.00 0.02 0.00 90 1013.8
20260508041517 56 203 0.0 0.0 0.00 0.02 0.00 91 1013.8
20260508041029 56 203 0.0 0.0 0.00 0.02 0.00 91 1013.8
20260508040529 55 203 0.0 0.0 0.00 0.02 0.00 91 1013.9
20260508040018 55 203 0.0 0.0 0.00 0.02 0.00 91 1013.7
20260508035535 55 203 0.0 0.0 0.00 0.02 0.00 91 1013.7
20260508035013 55 203 0.0 0.0 0.00 0.02 0.00 91 1013.6
20260508034543 55 203 0.0 0.0 0.00 0.02 0.00 91 1013.6
20260508033532 55 203 0.0 0.0 0.00 0.02 0.00 91 1013.5
20260508033037 55 203 0.0 0.0 0.00 0.02 0.00 90 1013.5
20260508032539 55 203 0.0 0.0 0.00 0.02 0.00 90 1013.5
20260508031533 55 203 0.0 0.0 0.00 0.02 0.00 90 1013.5
20260508031024 55 203 0.0 0.0 0.00 0.02 0.00 90 1013.6
20260508030527 55 203 0.0 0.0 0.00 0.02 0.00 90 1013.6
20260508030030 55 203 0.0 0.0 0.00 0.02 0.00 90 1013.5
20260508025524 56 203 0.0 0.0 0.00 0.02 0.00 90 1013.5
20260508025011 56 203 0.0 0.0 0.00 0.02 0.00 90 1013.4
20260508024513 56 203 0.0 0.0 0.00 0.02 0.00 89 1013.4
20260508024018 56 203 0.0 0.0 0.00 0.02 0.00 89 1013.5
20260508023529 56 203 0.0 0.0 0.00 0.02 0.00 89 1013.3
20260508023031 56 203 0.0 0.0 0.00 0.02 0.00 89 1013.4
20260508022528 56 203 0.0 0.0 0.00 0.02 0.00 88 1013.4
20260508022036 56 203 0.0 0.0 0.00 0.02 0.00 88 1013.4
20260508021536 56 203 0.0 0.0 0.00 0.02 0.00 88 1013.4
20260508021026 57 203 0.0 0.0 0.00 0.02 0.00 88 1013.4
20260508020535 57 203 0.0 0.0 0.00 0.02 0.00 88 1013.5
20260508020034 57 203 0.0 0.0 0.00 0.02 0.00 88 1013.5
20260508015013 57 203 0.0 0.0 0.02 0.02 0.00 88 1013.6
20260508014515 57 203 0.0 0.0 0.02 0.02 0.00 88 1013.5
20260508014037 57 203 0.0 0.0 0.02 0.02 0.00 88 1013.5
20260508013528 57 203 0.0 0.0 0.02 0.02 0.00 88 1013.5
20260508013042 58 203 0.0 0.0 0.02 0.02 0.00 88 1013.5
20260508012527 58 203 0.0 0.0 0.02 0.02 0.00 88 1013.5
20260508012018 58 203 0.0 0.0 0.02 0.02 0.00 87 1013.4
20260508011041 58 203 0.0 0.0 0.02 0.02 0.00 87 1013.5
20260508010533 58 203 0.0 0.0 0.02 0.02 0.00 86 1013.6
20260508010032 58 203 0.0 0.0 0.02 0.02 0.00 86 1013.6
20260508005520 58 203 0.0 0.0 0.00 0.00 0.00 86 1013.7
20260508005022 58 203 0.0 0.0 0.00 0.00 0.00 86 1013.5
20260508004545 58 203 0.0 0.0 0.00 0.00 0.00 85 1013.6
20260508004021 59 203 0.0 0.0 0.00 0.00 0.00 85 1013.6
20260508003527 59 203 0.0 0.0 0.00 0.00 0.00 85 1013.5
20260508003032 59 203 0.0 0.0 0.00 0.00 0.00 85 1013.6
20260508002531 59 203 0.0 0.0 0.00 0.00 0.00 84 1013.7
20260508002020 59 203 0.0 0.0 0.00 0.00 0.00 83 1013.7
20260508001512 59 203 0.0 0.0 0.00 0.00 0.00 83 1013.6
20260508001028 59 203 0.0 0.0 0.00 0.00 0.00 83 1013.5
20260508000526 59 203 0.0 0.0 0.00 0.00 0.00 82 1013.5
20260508000010 59 203 0.0 0.0 0.00 0.00 0.00 82 1013.6
20260507235526 60 203 0.0 0.0 0.00 0.00 0.00 81 1013.6
20260507235041 60 203 0.0 0.0 0.00 0.00 0.00 81 1013.6
20260507234540 60 203 0.0 0.0 0.00 0.00 0.00 80 1013.5
20260507233513 60 203 0.0 0.0 0.00 0.00 0.00 79 1013.5
20260507233013 60 203 0.0 0.0 0.00 0.00 0.00 78 1013.5
20260507232529 61 203 0.0 0.0 0.00 0.00 0.00 77 1013.6
20260507232044 61 203 0.0 0.0 0.00 0.00 0.00 76 1013.6
20260507231517 61 203 0.0 0.0 0.00 0.00 0.00 73 1013.6
20260507231025 62 203 0.0 0.0 0.00 0.00 0.00 72 1013.5
20260507225516 62 203 0.0 0.0 0.00 0.00 0.00 69 1013.4
20260507225014 62 225 0.0 0.0 0.00 0.00 0.00 68 1013.4
20260507224530 62 225 0.0 0.0 0.00 0.00 0.00 67 1013.4
20260507223529 62 225 0.0 0.0 0.00 0.00 0.00 67 1013.4
20260507222518 62 225 0.0 0.0 0.00 0.00 0.00 68 1013.4
20260507222027 62 225 0.0 0.0 0.00 0.00 0.00 69 1013.4
20260507221519 62 225 0.0 0.0 0.00 0.00 0.00 70 1013.5
20260507220531 61 225 0.0 0.0 0.00 0.00 0.00 72 1013.4
20260507220012 61 225 0.0 0.0 0.00 0.00 0.00 71 1013.5
20260507215528 61 225 0.0 0.0 0.00 0.00 0.00 71 1013.5
20260507215013 61 225 0.0 0.0 0.00 0.00 0.00 70 1013.4
20260507214545 61 225 0.0 0.0 0.00 0.00 0.00 69 1013.3
20260507214020 60 225 0.0 0.0 0.00 0.00 0.00 72 1013.4
20260507213522 60 225 0.0 0.0 0.00 0.00 0.00 73 1013.3
20260507213032 60 225 0.0 0.0 0.00 0.00 0.00 74 1013.3
20260507212530 60 225 0.0 0.0 0.00 0.00 0.00 75 1013.3
20260507212030 60 225 0.0 0.0 0.00 0.00 0.00 76 1013.3
20260507211530 60 225 0.0 0.0 0.00 0.00 0.00 76 1013.3
20260507211030 60 225 0.0 0.0 0.00 0.00 0.00 76 1013.3
20260507210020 60 225 0.0 0.0 0.00 0.00 0.00 75 1013.2
20260507205535 60 225 0.0 0.0 0.00 0.00 0.00 74 1013.1
20260507205043 60 225 0.0 0.0 0.00 0.00 0.00 75 1013.0
20260507204542 61 225 0.0 0.0 0.00 0.00 0.00 75 1013.1
20260507204034 61 225 0.0 0.0 0.00 0.00 0.00 74 1013.2
20260507203525 61 225 0.0 0.0 0.00 0.00 0.00 73 1013.2
20260507203032 62 225 0.0 0.0 0.00 0.00 0.00 73 1013.1
20260507202539 62 225 0.0 0.0 0.00 0.00 0.00 72 1013.1
20260507201512 62 225 0.0 0.0 0.00 0.00 0.00 70 1013.1
20260507201028 62 225 0.0 0.0 0.00 0.00 0.00 71 1013.0
20260507200528 62 225 0.0 0.0 0.00 0.00 0.00 71 1013.1
20260507200019 62 225 0.0 0.0 0.00 0.00 0.00 72 1013.1
20260507195535 62 225 0.0 0.0 0.00 0.00 0.00 72 1013.1
20260507195035 62 225 0.0 0.0 0.00 0.00 0.00 73 1013.2
20260507194535 62 225 0.0 0.0 0.00 0.00 0.00 72 1013.1
20260507194025 62 225 0.0 0.0 0.00 0.00 0.00 72 1013.2
20260507193533 62 225 0.0 0.0 0.00 0.00 0.00 72 1013.2
20260507193040 62 225 0.0 0.0 0.00 0.00 0.00 72 1013.0
20260507192516 63 225 0.0 0.0 0.00 0.00 0.00 71 1013.0
20260507192030 63 225 0.0 0.0 0.00 0.00 0.00 70 1013.0
20260507191530 63 225 0.0 0.0 0.00 0.00 0.00 69 1012.9
20260507191021 63 225 0.0 0.0 0.00 0.00 0.00 69 1012.9
20260507190512 63 225 0.0 0.0 0.00 0.00 0.00 68 1012.9
20260507190045 63 225 0.0 0.0 0.00 0.00 0.00 69 1012.9
20260507185520 63 225 0.0 0.0 0.00 0.00 0.00 69 1012.9
20260507185009 64 225 0.0 0.0 0.00 0.00 0.00 67 1012.9
20260507184525 65 225 0.0 0.0 0.00 0.00 0.00 64 1012.9
20260507183525 67 180 0.0 0.0 0.00 0.00 0.00 56 1012.7
20260507182522 67 180 0.0 0.0 0.00 0.00 0.00 54 1012.6
20260507182022 67 180 0.0 0.0 0.00 0.00 0.00 55 1012.5
20260507181546 67 180 0.0 0.0 0.00 0.00 0.00 54 1012.5
20260507181030 67 180 0.0 0.0 0.00 0.00 0.00 54 1012.5
20260507180521 67 180 0.0 0.0 0.00 0.00 0.00 54 1012.5
20260507180012 68 180 0.0 0.0 0.00 0.00 0.00 53 1012.4
20260507175519 68 180 0.0 0.0 0.00 0.00 0.00 53 1012.4
20260507175018 68 180 0.0 0.0 0.00 0.00 0.00 53 1012.2
20260507174009 68 180 0.0 0.0 0.00 0.00 0.00 52 1012.2
20260507173534 68 180 0.0 0.0 0.00 0.00 0.00 51 1012.1
20260507173019 69 180 0.0 0.0 0.00 0.00 0.00 51 1012.2
20260507172532 69 180 0.0 0.0 0.00 0.00 0.00 51 1012.2
20260507172021 69 180 0.0 0.0 0.00 0.00 0.00 50 1012.1
20260507171520 69 180 0.0 0.0 0.00 0.00 0.00 50 1012.0
20260507171028 69 180 0.0 0.0 0.00 0.00 0.00 50 1012.0
20260507170510 70 180 0.0 0.0 0.00 0.00 0.00 50 1011.9
20260507170009 70 180 0.0 0.0 0.00 0.00 0.00 49 1011.9
20260507165023 71 180 0.0 0.0 0.00 0.00 0.00 49 1011.9
20260507164531 71 180 0.0 0.0 0.00 0.00 0.00 49 1011.9
20260507164014 71 180 0.0 0.0 0.00 0.00 0.00 48 1011.8
20260507163520 72 180 0.0 0.0 0.00 0.00 0.00 47 1011.8
20260507162521 72 180 0.0 0.0 0.00 0.00 0.00 46 1011.7
20260507162020 72 180 0.0 0.0 0.00 0.00 0.00 46 1011.6
20260507161512 72 180 0.0 0.0 0.00 0.00 0.00 45 1011.6
20260507160530 72 203 0.0 0.0 0.00 0.00 0.00 45 1011.5
20260507160031 73 203 0.0 0.0 0.00 0.00 0.00 47 1011.5
20260507154512 73 180 0.0 0.0 0.00 0.00 0.00 44 1011.4
20260507153020 72 180 0.0 0.0 0.00 0.00 0.00 49 1011.5
20260507152512 72 180 0.0 0.0 0.00 0.00 0.00 50 1011.5
20260507151518 73 203 0.0 0.0 0.00 0.00 0.00 49 1011.7
20260507151042 73 203 0.0 0.0 0.00 0.00 0.00 47 1011.7
20260507150509 73 158 0.0 0.0 0.00 0.00 0.00 46 1011.7
20260507150032 73 90 0.0 0.0 0.00 0.00 0.00 46 1011.5
20260507145532 74 158 0.0 0.0 0.00 0.00 0.00 44 1011.6
20260507145041 74 158 0.0 0.0 0.00 0.00 0.00 42 1011.5
20260507144524 74 158 0.0 0.0 0.00 0.00 0.00 40 1011.5
20260507143531 75 158 0.0 0.0 0.00 0.00 0.00 40 1011.6
20260507143023 75 203 0.0 0.0 0.00 0.00 0.00 40 1011.6
20260507142530 75 180 0.9 0.9 0.00 0.00 0.00 43 1011.5
20260507142037 76 203 0.0 0.0 0.00 0.00 0.00 40 1011.5
20260507141521 76 180 0.0 0.0 0.00 0.00 0.00 37 1011.5
20260507141031 76 180 0.9 0.9 0.00 0.00 0.00 37 1011.4
20260507140032 76 293 0.0 5.2 0.00 0.00 0.00 38 1011.3
20260507135515 77 68 0.0 0.0 0.00 0.00 0.00 36 1011.3
20260507135017 77 225 0.0 0.0 0.00 0.00 0.00 35 1011.4
20260507134536 77 225 0.0 0.0 0.00 0.00 0.00 37 1011.4
20260507133520 77 203 0.0 0.0 0.00 0.00 0.00 36 1011.3
20260507132538 78 180 0.0 0.0 0.00 0.00 0.00 36 1011.4
20260507132020 78 248 0.0 0.0 0.00 0.00 0.00 36 1011.5
20260507131521 79 180 0.0 0.0 0.00 0.00 0.00 35 1011.4
20260507130036 79 180 0.0 0.0 0.00 0.00 0.00 34 1011.4
20260507125520 78 158 0.0 0.0 0.00 0.00 0.00 34 1011.4
20260507125036 79 180 0.0 0.0 0.00 0.00 0.00 33 1011.5
20260507124537 79 180 0.0 0.0 0.00 0.00 0.00 32 1011.5
20260507124020 79 180 0.0 0.0 0.00 0.00 0.00 33 1011.5
20260507123010 79 158 0.0 0.0 0.00 0.00 0.00 33 1011.6
20260507122518 79 90 0.0 0.0 0.00 0.00 0.00 32 1011.5
20260507122025 79 180 0.0 0.0 0.00 0.00 0.00 32 1011.7
20260507121517 78 180 0.0 0.0 0.00 0.00 0.00 32 1011.5
20260507121009 78 293 0.0 0.0 0.00 0.00 0.00 36 1011.5
20260507120528 78 0 4.3 4.3 0.00 0.00 0.00 33 1011.5
20260507120019 78 0 0.0 0.0 0.00 0.00 0.00 32 1011.7
20260507115035 79 270 0.0 0.0 0.00 0.00 0.00 32 1011.8
20260507114518 80 0 0.0 0.0 0.00 0.00 0.00 29 1011.7
20260507113516 80 293 0.0 0.0 0.00 0.00 0.00 30 1011.8
20260507113024 80 23 0.0 0.0 0.00 0.00 0.00 28 1011.8
20260507112515 81 0 0.0 0.0 0.00 0.00 0.00 28 1011.9
20260507112031 81 203 0.0 0.0 0.00 0.00 0.00 29 1011.9
20260507111531 80 338 0.0 0.0 0.00 0.00 0.00 30 1011.9
20260507111022 79 0 0.0 0.0 0.00 0.00 0.00 30 1011.9
20260507110546 81 158 0.0 1.7 0.00 0.00 0.00 29 1011.9
20260507110019 79 0 0.0 0.0 0.00 0.00 0.00 29 1012.0
20260507105030 81 45 0.0 0.0 0.00 0.00 0.00 28 1012.0
20260507104511 81 203 0.0 0.0 0.00 0.00 0.00 28 1012.1
20260507104050 80 203 0.0 0.0 0.00 0.00 0.00 28 1012.1
20260507103051 80 180 0.0 0.0 0.00 0.00 0.00 28 1012.3
20260507102540 79 203 0.0 0.0 0.00 0.00 0.00 29 1012.4
20260507102033 78 248 0.0 0.0 0.00 0.00 0.00 28 1012.3
20260507101517 79 225 0.0 0.0 0.00 0.00 0.00 29 1012.4
20260507101025 78 113 0.0 0.0 0.00 0.00 0.00 29 1012.4
20260507100533 79 293 0.0 0.0 0.00 0.00 0.00 31 1012.4
20260507095515 77 0 0.9 0.9 0.00 0.00 0.00 31 1012.4
20260507095022 77 293 0.0 0.0 0.00 0.00 0.00 35 1012.5
20260507094525 77 0 4.3 4.3 0.00 0.00 0.00 35 1012.5
20260507094017 78 338 0.0 0.0 0.00 0.00 0.00 33 1012.6
20260507093533 78 338 0.0 0.0 0.00 0.00 0.00 35 1012.6
20260507093033 78 180 0.0 0.0 0.00 0.00 0.00 35 1012.7
20260507092519 77 293 0.0 0.0 0.00 0.00 0.00 37 1012.8
20260507091027 76 0 0.0 0.0 0.00 0.00 0.00 39 1013.0
20260507090526 76 0 0.0 0.0 0.00 0.00 0.00 40 1013.0
20260507090009 75 0 0.0 0.0 0.00 0.00 0.00 42 1012.9
20260507085526 75 0 0.0 0.0 0.00 0.00 0.00 43 1012.9
20260507085025 74 0 2.6 2.6 0.00 0.00 0.00 46 1012.9
20260507084533 74 293 0.0 0.0 0.00 0.00 0.00 47 1013.0
20260507084048 73 338 2.6 2.6 0.00 0.00 0.00 47 1013.0
20260507083023 71 315 0.0 0.0 0.00 0.00 0.00 48 1013.2
20260507082015 71 338 0.0 0.0 0.00 0.00 0.00 54 1013.2
20260507081512 70 180 0.0 0.0 0.00 0.00 0.00 54 1013.2
20260507081030 68 315 0.0 0.0 0.00 0.00 0.00 55 1013.3
20260507080020 68 338 0.0 0.0 0.00 0.00 0.00 55 1013.4
20260507075035 69 0 0.9 6.1 0.00 0.00 0.00 53 1013.4
20260507074034 69 203 0.0 0.0 0.00 0.00 0.00 52 1013.5
20260507073518 68 180 0.0 0.0 0.00 0.00 0.00 53 1013.6
20260507072516 67 315 0.0 0.0 0.00 0.00 0.00 56 1013.6
20260507072023 66 315 0.0 0.0 0.00 0.00 0.00 59 1013.4
20260507071538 65 315 0.0 0.0 0.00 0.00 0.00 58 1013.6
20260507070512 64 293 0.0 0.0 0.00 0.00 0.00 60 1013.6
20260507070014 63 315 0.0 0.0 0.00 0.00 0.00 61 1013.6
20260507065529 64 23 4.3 4.3 0.00 0.00 0.00 59 1013.7
20260507065036 64 0 0.0 0.0 0.00 0.00 0.00 60 1013.6
20260507064527 64 45 0.0 2.6 0.00 0.00 0.00 60 1013.6
20260507064034 65 225 0.0 0.0 0.00 0.00 0.00 59 1013.6
20260507063510 63 23 0.0 0.0 0.00 0.00 0.00 60 1013.7
20260507063016 63 225 0.0 0.0 0.00 0.00 0.00 59 1013.7
20260507062540 62 0 0.0 0.0 0.00 0.00 0.00 62 1013.8
20260507062023 62 338 0.0 0.0 0.00 0.00 0.00 62 1013.8
20260507061539 62 248 0.0 0.0 0.00 0.00 0.00 61 1013.8
20260507060538 61 315 0.0 0.0 0.00 0.00 0.00 62 1013.9
20260507060020 60 0 0.0 0.0 0.00 0.00 0.00 65 1013.8
20260507055522 59 338 0.0 0.9 0.00 0.00 0.00 65 1013.9